When you browse on this site, cookies collect data to enhance your experience and personalize the content and advertising you see.
Visit our Privacy Policy to learn more. By continuing to use the site, you agree to this use of cookies and data.
  • In Austria
  • List of Countries
  • For 7 days
  • Water Temperature
  • Weather Map
  • News
  • Weather Widgets
  • user-avatar
    Login

    Hourly Weather Santiago Tulantepec

    Today, 20 August, Tuesday

    Time Temperature Precipitation Wind Pressure Humidity
    00:00 +12°C° 0 mm 1 mps 584 mmHg 97%
    01:00 +12°C° 0 mm 1 mps 584 mmHg 96%
    02:00 +12°C° 0 mm 1 mps 583 mmHg 95%
    03:00 +12°C° 0 mm 1 mps 583 mmHg 95%
    04:00 +11°C° 0 mm 1 mps 583 mmHg 94%
    05:00 +11°C° 0 mm 1 mps 583 mmHg 93%
    06:00 +13°C° 0 mm 1 mps 584 mmHg 87%
    07:00 +15°C° 0 mm 2 mps 586 mmHg 81%
    08:00 +17°C° 0 mm 2 mps 587 mmHg 75%
    09:00 +18°C° 0 mm 3 mps 587 mmHg 69%
    10:00 +20°C° 0 mm 4 mps 587 mmHg 64%
    11:00 +21°C° 0 mm 4 mps 588 mmHg 59%
    12:00 +21°C° 0.2 mm 4 mps 587 mmHg 63%
    13:00 +21°C° 0.2 mm 5 mps 587 mmHg 67%
    14:00 +20°C° 0.2 mm 5 mps 586 mmHg 71%
    15:00 +19°C° 0.2 mm 4 mps 585 mmHg 76%
    16:00 +18°C° 0.2 mm 4 mps 585 mmHg 82%
    17:00 +17°C° 0.2 mm 3 mps 584 mmHg 87%
    18:00 +16°C° 0.1 mm 3 mps 585 mmHg 90%
    19:00 +15°C° 0.1 mm 2 mps 585 mmHg 93%
    20:00 +15°C° 0.1 mm 2 mps 585 mmHg 96%
    21:00 +14°C° 0 mm 2 mps 585 mmHg 96%
    22:00 +14°C° 0 mm 1 mps 585 mmHg 95%
    23:00 +14°C° 0 mm 1 mps 585 mmHg 95%

    Tomorrow, 21 August, Wednesday

    Time Temperature Precipitation Wind Pressure Humidity
    00:00 +13°C° 0 mm 1 mps 584 mmHg 95%
    01:00 +13°C° 0 mm 1 mps 584 mmHg 95%
    02:00 +12°C° 0 mm 1 mps 583 mmHg 95%
    03:00 +12°C° 0 mm 1 mps 583 mmHg 95%
    04:00 +11°C° 0 mm 1 mps 583 mmHg 95%
    05:00 +10°C° 0 mm 0 mps 583 mmHg 96%
    06:00 +13°C° 0 mm 1 mps 584 mmHg 87%
    07:00 +15°C° 0 mm 1 mps 585 mmHg 78%
    08:00 +19°C° 0 mm 1 mps 587 mmHg 69%
    09:00 +19°C° 0 mm 2 mps 587 mmHg 63%
    10:00 +21°C° 0 mm 3 mps 588 mmHg 58%
    11:00 +22°C° 0 mm 4 mps 588 mmHg 53%
    12:00 +22°C° 0.1 mm 4 mps 587 mmHg 57%
    13:00 +21°C° 0.1 mm 4 mps 587 mmHg 61%
    14:00 +21°C° 0.1 mm 5 mps 586 mmHg 65%
    15:00 +20°C° 0.2 mm 4 mps 585 mmHg 70%
    16:00 +19°C° 0.2 mm 4 mps 585 mmHg 75%
    17:00 +17°C° 0.2 mm 3 mps 584 mmHg 81%
    18:00 +16°C° 0 mm 2 mps 584 mmHg 86%
    19:00 +15°C° 0 mm 2 mps 584 mmHg 91%
    20:00 +13°C° 0 mm 1 mps 584 mmHg 96%
    21:00 +13°C° 0 mm 1 mps 584 mmHg 96%
    22:00 +13°C° 0 mm 1 mps 584 mmHg 95%
    23:00 +13°C° 0 mm 1 mps 584 mmHg 94%

    Day after tomorrow, 22 August, Thursday

    Time Temperature Precipitation Wind Pressure Humidity
    00:00 +13°C° 0 mm 1 mps 584 mmHg 93%
    01:00 +13°C° 0 mm 1 mps 583 mmHg 92%
    02:00 +13°C° 0 mm 1 mps 583 mmHg 92%
    03:00 +13°C° 0 mm 1 mps 583 mmHg 92%
    04:00 +13°C° 0 mm 1 mps 583 mmHg 92%
    05:00 +13°C° 0 mm 1 mps 583 mmHg 93%
    06:00 +15°C° 0 mm 1 mps 584 mmHg 85%
    07:00 +18°C° 0 mm 1 mps 586 mmHg 77%
    08:00 +20°C° 0 mm 1 mps 587 mmHg 70%
    09:00 +21°C° 0.5 mm 1 mps 587 mmHg 69%
    10:00 +22°C° 0.5 mm 1 mps 587 mmHg 68%
    11:00 +23°C° 0.5 mm 1 mps 587 mmHg 67%
    12:00 +22°C° 2 mm 1 mps 586 mmHg 71%
    13:00 +22°C° 2 mm 1 mps 586 mmHg 75%
    14:00 +20°C° 2 mm 2 mps 585 mmHg 78%
    15:00 +20°C° 1.6 mm 2 mps 585 mmHg 83%
    16:00 +19°C° 1.6 mm 2 mps 584 mmHg 87%
    17:00 +18°C° 1.6 mm 2 mps 584 mmHg 91%
    18:00 +17°C° 1.2 mm 2 mps 584 mmHg 92%
    19:00 +18°C° 1.2 mm 1 mps 584 mmHg 93%
    20:00 +16°C° 1.2 mm 1 mps 585 mmHg 94%
    21:00 +16°C° 0.4 mm 1 mps 585 mmHg 93%
    22:00 +16°C° 0.4 mm 2 mps 585 mmHg 93%
    23:00 +15°C° 0.4 mm 2 mps 585 mmHg 92%

    23 August, Friday

    Time Temperature Precipitation Wind Pressure Humidity
    00:00 +15°C° 0 mm 2 mps 584 mmHg 92%
    01:00 +15°C° 0 mm 2 mps 584 mmHg 93%
    02:00 +14°C° 0 mm 2 mps 583 mmHg 93%
    03:00 +14°C° 0 mm 2 mps 583 mmHg 93%
    04:00 +14°C° 0 mm 2 mps 583 mmHg 93%
    05:00 +14°C° 0 mm 2 mps 583 mmHg 92%
    06:00 +15°C° 0 mm 1 mps 585 mmHg 86%
    07:00 +18°C° 0 mm 1 mps 586 mmHg 80%
    08:00 +20°C° 0 mm 1 mps 587 mmHg 74%
    09:00 +21°C° 0.5 mm 1 mps 587 mmHg 71%
    10:00 +22°C° 0.5 mm 1 mps 587 mmHg 68%
    11:00 +23°C° 0.5 mm 1 mps 587 mmHg 65%
    12:00 +23°C° 2.1 mm 2 mps 587 mmHg 69%
    13:00 +23°C° 2.1 mm 2 mps 586 mmHg 73%
    14:00 +21°C° 2.1 mm 2 mps 585 mmHg 77%
    15:00 +20°C° 1.7 mm 2 mps 585 mmHg 81%
    16:00 +19°C° 1.7 mm 2 mps 584 mmHg 86%
    17:00 +18°C° 1.7 mm 2 mps 584 mmHg 90%
    18:00 +17°C° 0.3 mm 2 mps 584 mmHg 90%
    19:00 +18°C° 0.3 mm 1 mps 585 mmHg 90%
    20:00 +16°C° 0.3 mm 1 mps 585 mmHg 91%
    21:00 +16°C° 0 mm 1 mps 585 mmHg 90%
    22:00 +16°C° 0 mm 1 mps 585 mmHg 89%
    23:00 +16°C° 0 mm 1 mps 585 mmHg 88%

    24 August, Saturday

    Time Temperature Precipitation Wind Pressure Humidity
    00:00 +16°C° 0 mm 1 mps 585 mmHg 88%
    01:00 +16°C° 0 mm 1 mps 585 mmHg 88%
    02:00 +15°C° 0 mm 2 mps 584 mmHg 88%
    03:00 +15°C° 0 mm 1 mps 584 mmHg 88%
    04:00 +15°C° 0 mm 1 mps 584 mmHg 88%
    05:00 +14°C° 0 mm 1 mps 584 mmHg 89%
    06:00 +16°C° 0 mm 1 mps 585 mmHg 81%
    07:00 +17°C° 0 mm 0 mps 587 mmHg 74%
    08:00 +19°C° 0 mm 0 mps 588 mmHg 67%
    09:00 +23°C° 0.2 mm 1 mps 588 mmHg 62%
    10:00 +24°C° 0.2 mm 1 mps 588 mmHg 57%
    11:00 +25°C° 0.2 mm 2 mps 589 mmHg 53%
    12:00 +24°C° 2.2 mm 2 mps 588 mmHg 59%
    13:00 +24°C° 2.2 mm 2 mps 587 mmHg 66%
    14:00 +23°C° 2.2 mm 2 mps 586 mmHg 72%
    15:00 +21°C° 1.5 mm 2 mps 586 mmHg 77%
    16:00 +20°C° 1.5 mm 2 mps 585 mmHg 82%
    17:00 +20°C° 1.5 mm 1 mps 585 mmHg 87%
    18:00 +19°C° 0.3 mm 1 mps 585 mmHg 88%
    19:00 +18°C° 0.3 mm 1 mps 585 mmHg 89%
    20:00 +18°C° 0.3 mm 1 mps 585 mmHg 90%
    21:00 +16°C° 0 mm 1 mps 585 mmHg 88%
    22:00 +16°C° 0 mm 1 mps 585 mmHg 85%
    23:00 +15°C° 0 mm 1 mps 585 mmHg 82%

    25 August, Sunday

    Time Temperature Precipitation Wind Pressure Humidity
    00:00 +15°C° 0 mm 1 mps 584 mmHg 82%
    01:00 +14°C° 0 mm 1 mps 584 mmHg 83%
    02:00 +14°C° 0 mm 1 mps 583 mmHg 83%
    03:00 +14°C° 0 mm 1 mps 583 mmHg 84%
    04:00 +14°C° 0 mm 1 mps 584 mmHg 84%
    05:00 +14°C° 0 mm 1 mps 584 mmHg 85%
    06:00 +16°C° 0 mm 1 mps 585 mmHg 78%
    07:00 +19°C° 0 mm 1 mps 586 mmHg 71%
    08:00 +20°C° 0 mm 0 mps 588 mmHg 64%
    09:00 +23°C° 0 mm 1 mps 588 mmHg 59%
    10:00 +24°C° 0 mm 1 mps 588 mmHg 54%
    11:00 +26°C° 0 mm 2 mps 589 mmHg 49%
    12:00 +25°C° 0.3 mm 2 mps 588 mmHg 55%
    13:00 +25°C° 0.3 mm 3 mps 587 mmHg 61%
    14:00 +24°C° 0.3 mm 3 mps 586 mmHg 67%
    15:00 +22°C° 0.9 mm 3 mps 585 mmHg 73%
    16:00 +21°C° 0.9 mm 3 mps 585 mmHg 79%
    17:00 +19°C° 0.9 mm 2 mps 584 mmHg 85%
    18:00 +18°C° 0.4 mm 2 mps 584 mmHg 88%
    19:00 +18°C° 0.4 mm 1 mps 584 mmHg 92%
    20:00 +15°C° 0.4 mm 1 mps 584 mmHg 95%
    21:00 +15°C° 0 mm 1 mps 584 mmHg 93%
    22:00 +15°C° 0 mm 1 mps 584 mmHg 92%
    23:00 +15°C° 0 mm 1 mps 584 mmHg 91%
    Show more